Location: Isola Pescaroli
(45.0500°N, 10.1667°E)
Time: 23:56:17
(UTC+00:00)

SL-4 R/B - Pass Details

Date: 22 June 2021
Orbit: 428 x 662 km, 51.6° (Epoch: 29 July)

Event Time Altitude Azimuth Distance (km) Brightness Sun altitude
Rises 21:39:12 0° 251° (WSW) 2,774 5.7 -17.7°
Reaches altitude 10° 21:41:34 10° 255° (WSW) 1,836 4.8 -17.8°
Maximum altitude 21:45:41 60° 335° (NNW) 605 2.5 -18.1°
Drops below altitude 10° 21:49:30 10° 57° (ENE) 1,699 4.6 -18.4°
Sets 21:51:37 0° 61° (ENE) 2,545 5.5 -18.5°
